{"data":{"norad_id":58024,"epoch":"2026-09-21T17:36:32.257152Z","epoch_age_seconds":127208,"freshness":"FRESH","line1":"1 58024U 23155J   26264.73370668  .00002560  00000+0  11791-3 0  9999","line2":"2 58024  97.5729 347.2535 0003890  91.7866 268.3815 15.21227599163002","mean_motion":15.21227599,"eccentricity":0.000389,"inclination_deg":97.5729,"raan_deg":347.2535,"arg_perigee_deg":91.7866,"mean_anomaly_deg":268.3815,"bstar":0.00011791,"rev_number":16300,"period_min":94.660391446132,"perigee_km":499.46020460972,"apogee_km":504.81305749468,"semimajor_km":6880.2736310522,"source":"CELESTRAK","updated_at":"2026-09-22T09:00:26.442291Z"}}